EHI
0 0 0 0 0 0 0 0 0 0 1 1 1 1 0 0 0 0 0 0 0 0 1 1 1 0 0 0 0 0 0 0 0 0 0 0 0 0 0 0 0 0 0
0 0 0 0 0 0 0 0 0 0 0 1 2 2 1 0 0 0 0 0 0 0 0 0 0 0 0 0 0 0 0 0 0 0 0 0 0 0 0 0 0 0 0
0 0 0 0 0 0 0 0 0 0 0 1 2 3 2 1 0 0 0 0 0 0 0 0 0 0 0 0 0 0 0 0 0 0 0 0 0 0 0 0 0 0 0
0 0 0 0 0 0 0 0 0 0 0 1 3 3 2 1 0 0 0 0 0 0 0 0 0 0 0 0 0 0 0 0 0 0 0 0 0 0 0 0 0 0 0
0 0 0 0 0 0 0 0 0 0 1 2 3 3 2 1 0 0 0 0 0 0 0 0 0 0 0 0 0 0 0 0 0 0 0 0 0 0 0 0 0 0 0
0 0 0 0 0 0 0 0 0 1 1 2 2 1 1 0 0 0 0 0 0 0 0 0 0 0 0 0 0 0 0 0 0 0 0 0 0 0 0 0 0 0 0
0 0 0 0 0 0 0 0 0 1 1 1 1 0 0 0 0 0 0 0 0 0 0 0 0 0 0 0 0 0 0 0 0 0 0 0 0 0 0 0 0 0 0
0 0 0 0 0 0 0 0 0 1 1 0 0 0 0 0 0 0 0 0 0 0 0 0 0 0 0 0 0 0 0 0 0 0 0 0 0 0 0 0 0 0 0
0 0 0 0 0 0 0 0 0 0 0 0 0 0 0 0 0 0 0 0 0 0 0 0 0 0 0 0 0 0 0 0 0 0 0 0 0 0 0 0 0 0 0
0 0 0 0 0 0 0 0 0 0 0 0 0 0 0 0 0 0 0 0 0 0 0 0 0 0 0 0 0 0 0 0 0 0 0 0 0 0 0 0 0 0 0
0 0 0 0 0 0 0 0 0 0 0 0 0 0 0 0 0 0 0 0 0 0 0 0 0 0 0 0 0 0 0 0 0 0 0 0 0 0 0 0 0 0 0
0 0 0 0 0 0 0 0 0 0 0 0 0 0 0 0 0 0 0 0 0 0 0 0 0 0 0 0 0 0 0 0 0 0 0 0 0 0 0 0 0 0 0
0 0 0 0 0 0 0 0 0 0 0 0 0 0 0 0 0 0 0 0 0 0 0 0 0 0 0 0 0 0 0 0 0 0 0 0 0 0 0 0 0 0 0
0 0 0 0 0 0 0 0 0 0 0 0 0 0 0 0 0 0 0 0 0 0 0 0 0 0 0 0 0 0 0 0 0 0 0 0 0 0 0 0 0 0 0
0 0 0 0 0 0 0 0 0 0 0 0 0 0 0 0 0 0 0 0 0 0 0 0 0 0 0 0 0 0 0 0 0 0 0 0 0 0 0 0 0 0 0
0 0 0 0 0 0 0 0 0 0 0 0 0 0 0 0 0 0 0 0 0 0 0 0 0 0 0 0 0 0 0 0 0 0 0 0 0 0 0 0 0 0 0
0 0 0 0 0 0 0 0 0 0 0 0 0 0 0 0 0 0 0 0 0 0 0 0 0 0 0 0 0 0 0 0 0 0 0 0 0 0 0 0 0 0 0
0 0 0 0 0 0 0 0 0 0 0 0 0 0 0 0 0 0 0 0 0 0 0 0 0 0 0 0 0 0 0 0 0 0 0 0 0 0 0 0 0 0 0
0 0 0 0 0 0 0 0 0 0 0 0 0 0 0 0 0 0 0 0 0 0 0 0 0 0 0 0 0 0 0 0 0 0 0 0 0 0 0 0 0 0 0
0 0 0 0 0 0 0 0 0 0 0 0 0 0 0 0 0 0 0 0 0 0 0 0 0 0 0 0 0 0 0 0 0 0 0 0 0 0 0 0 0 0 0
0 0 0 0 0 0 0 0 0 0 0 0 0 0 0 0 0 0 0 0 0 0 0 0 0 0 0 0 0 0 0 0 0 0 0 0 0 0 0 0 0 0 0
0 0 0 0 0 0 0 0 0 0 0 0 0 0 0 0 0 0 0 0 0 0 0 0 0 0 0 0 0 0 0 0 0 0 0 0 0 0 0 0 0 0 0
0 0 0 0 0 0 0 0 0 0 0 0 0 0 0 0 0 0 0 0 0 0 0 0 0 0 0 0 0 0 0 0 0 0 0 0 0 0 0 0 0 0 0
0 0 0 0 0 0 0 0 0 0 0 0 0 0 0 0 0 0 0 0 0 0 0 0 0 0 0 0 0 0 0 0 0 0 0 0 0 0 0 0 0 0 0
0 0 0 0 0 0 0 0 0 0 0 0 0 0 0 0 0 0 0 0 0 0 0 0 0 0 0 0 0 0 0 0 0 0 0 0 0 0 0 0 0 0 0
0 0 0 0 0 0 0 0 0 0 0 0 0 0 0 0 0 0 0 0 0 0 0 0 0 0 0 0 0 0 0 0 0 0 0 0 0 0 0 0 0 0 0
Wind_Speed
0 1 1 2 3 3 3 3 3 3 5 7 7 8 8 8 8 7 7 7 7 6 5 6 5 4 3 3 3 2 2 2 2 1 1 2 2 2 2 2 2 1 1
2 1 1 0 1 2 2 3 3 3 4 6 7 7 7 8 8 8 8 8 8 7 7 6 6 5 5 4 3 3 2 2 3 3 1 1 2 2 2 1 1 1 1
3 2 1 1 0 1 1 2 2 3 3 4 5 6 7 7 7 7 7 7 7 7 7 7 7 7 5 4 4 3 2 2 2 3 2 1 1 1 1 1 1 1 1
4 3 2 2 1 0 1 1 2 2 3 3 4 5 5 6 6 6 6 7 6 6 6 6 6 7 6 6 5 4 4 3 3 3 2 2 2 1 1 1 1 0 0
4 3 3 2 2 1 1 1 1 2 2 3 4 4 4 4 5 6 6 7 7 7 6 5 5 7 7 5 4 5 5 3 3 3 3 2 2 2 3 2 2 1 0
4 3 3 3 2 2 0 1 2 2 2 2 3 4 4 3 7 8 7 6 7 8 7 6 6 7 8 8 7 6 5 4 4 3 3 3 3 3 3 2 2 2 2
4 4 4 3 3 2 1 1 2 2 2 2 2 3 4 5 8 9 9 6 7 7 7 6 5 6 7 6 7 6 4 4 4 4 3 3 3 3 4 3 3 2 2
4 4 4 3 3 2 1 1 1 2 2 2 2 3 4 5 8 9 9 6 5 6 6 6 7 7 6 7 6 5 4 3 3 2 3 2 2 2 3 4 4 2 1
5 4 3 3 3 2 1 1 1 2 2 2 2 4 4 5 7 8 8 5 5 5 5 5 6 7 10 11 8 6 5 3 4 5 5 4 4 4 4 4 3 3 1
6 5 3 2 2 2 1 1 1 2 2 2 3 3 4 4 7 8 7 4 5 5 4 4 6 8 11 11 7 7 6 4 4 4 3 3 2 3 4 3 4 3 2
6 5 4 3 2 1 1 1 2 2 3 3 3 2 3 4 6 7 6 4 5 5 4 4 4 10 11 10 8 6 7 6 5 4 3 2 2 2 2 2 2 2 2
5 5 4 3 2 1 1 1 1 2 3 3 3 2 2 3 4 5 5 5 5 5 4 4 5 10 10 9 6 7 9 7 4 3 2 2 2 2 2 2 3 3 2
5 4 3 3 2 1 0 1 1 2 2 2 2 2 2 2 3 6 6 7 6 3 4 7 9 11 9 6 8 9 7 4 4 3 3 2 2 3 3 2 3 3 3
5 4 3 2 2 2 1 0 1 1 1 2 2 2 2 2 2 3 3 4 5 4 4 7 9 9 6 6 6 5 3 4 4 3 3 3 3 3 2 2 2 2 1
5 4 3 2 1 1 1 1 1 1 1 2 2 3 3 3 4 6 4 3 3 4 5 4 3 3 3 3 3 3 3 3 3 3 3 3 3 3 3 2 2 2 2
4 4 3 2 1 1 1 2 3 1 1 1 0 1 1 2 4 6 6 6 7 9 5 4 4 5 5 5 5 4 4 4 4 4 4 4 4 4 3 3 3 3 3
4 4 3 2 2 1 1 1 1 2 2 1 0 0 1 2 3 5 6 7 8 8 4 4 5 5 5 5 5 5 5 4 4 4 4 4 4 4 4 3 3 3 3
4 4 3 2 2 2 1 1 1 1 1 1 1 1 2 2 3 4 6 5 4 5 3 4 4 5 5 5 5 4 4 4 4 4 4 4 5 4 4 4 4 4 4
4 3 3 2 2 2 1 1 1 1 1 1 1 1 2 2 3 4 5 2 3 3 3 4 4 4 4 4 4 4 5 4 4 5 5 5 5 5 5 5 5 7 6
3 6 5 3 2 2 1 1 1 1 1 1 2 1 1 1 1 2 2 2 2 2 3 3 3 4 4 4 5 5 5 5 5 5 5 5 5 5 5 6 5 5 5
3 4 6 3 2 2 2 2 2 1 2 2 2 2 3 2 2 2 2 2 2 2 2 2 3 3 3 3 4 5 5 5 5 5 5 5 5 5 5 5 5 5 4
3 3 3 3 2 2 2 2 2 2 2 2 2 1 2 1 1 1 1 1 1 1 2 2 2 2 3 4 4 4 5 5 5 5 5 5 5 5 5 5 5 5 5
3 3 3 3 3 4 3 2 2 2 2 2 2 1 1 1 1 1 1 1 1 1 1 1 2 2 2 2 3 4 4 5 5 5 5 5 5 5 5 6 6 6 6
3 3 3 3 3 2 2 2 2 2 2 2 2 2 1 1 1 1 1 0 1 1 1 1 2 2 2 2 2 2 3 3 4 4 6 5 5 5 5 5 5 6 6
3 3 3 3 3 2 2 2 2 2 2 2 2 2 2 1 1 1 1 1 1 1 1 1 1 2 3 3 3 3 4 5 5 4 4 4 5 6 5 5 5 5 6
3 3 3 3 3 2 2 2 2 2 2 2 2 2 2 2 2 2 2 1 1 1 1 1 1 2 2 3 3 4 6 7 7 7 4 4 5 5 6 5 6 6 6
Wind_Direction
230 195 200 193 184 174 183 194 199 196 188 181 183 183 180 178 176 177 177 172 172 173 168 167 166 155 158 160 154 158 165 155 175 156 92 106 109 113 94 72 66 61 86
358 354 323 349 180 178 186 194 189 189 190 188 180 182 182 179 177 180 178 176 175 179 175 166 167 160 164 162 163 166 165 161 160 172 147 118 105 124 112 92 55 53 82
8 2 0 5 332 188 181 184 175 172 176 179 175 179 179 177 177 180 175 174 176 177 173 171 166 163 168 162 155 155 156 150 143 147 149 126 113 116 110 74 50 33 74
7 2 360 359 359 307 199 173 167 166 170 173 172 173 173 171 175 176 169 169 170 167 161 161 158 163 166 161 159 159 154 152 148 144 151 151 143 132 149 182 204 160 28
9 9 1 5 14 28 59 149 153 160 166 167 167 163 164 166 173 172 168 165 161 153 146 144 141 140 140 145 152 156 155 159 156 157 164 162 171 173 196 182 181 158 245
4 2 1 5 14 12 12 153 138 143 144 150 166 162 166 170 166 167 161 158 158 153 148 141 139 137 138 138 139 140 147 158 166 167 178 188 197 188 166 160 148 150 229
357 356 0 4 8 5 12 105 140 139 136 140 151 152 158 161 163 162 156 153 154 153 151 151 149 148 143 136 136 127 117 122 145 159 173 187 176 171 156 161 175 182 205
355 358 359 358 359 1 22 79 105 116 129 129 140 136 132 142 146 148 144 141 144 147 152 156 153 148 153 148 141 133 123 106 109 114 138 139 131 137 156 166 166 135 79
352 353 354 357 355 349 348 66 90 100 105 111 129 138 133 136 147 147 142 136 134 137 143 151 152 150 159 153 141 138 132 125 109 113 112 111 114 130 138 124 135 143 179
343 340 341 347 358 357 356 37 76 104 111 108 100 122 132 138 152 153 151 141 139 140 137 142 153 159 162 159 152 152 157 163 147 136 121 106 102 113 127 142 159 162 163
335 336 340 347 353 354 28 72 102 109 112 111 108 111 125 139 152 156 161 148 150 149 151 155 163 168 168 168 164 159 167 155 147 145 140 128 106 96 83 85 108 150 166
335 336 335 337 349 13 87 97 111 123 126 128 124 117 116 135 149 160 165 164 155 150 160 160 162 167 168 168 166 161 161 150 136 139 143 147 142 132 114 96 85 81 90
336 336 333 342 353 357 129 149 148 151 147 148 146 149 143 135 155 165 169 167 167 152 154 160 160 165 165 166 172 171 162 147 147 157 168 175 163 149 132 111 92 84 67
334 330 332 339 338 336 348 149 182 181 168 163 165 168 164 165 168 162 163 164 162 153 144 154 157 162 159 163 170 172 160 164 164 170 170 163 148 143 152 154 154 150 119
333 329 332 329 327 337 340 336 294 266 201 190 195 184 180 198 200 186 174 171 164 163 143 129 133 146 163 164 163 165 168 174 181 165 163 162 163 164 173 167 162 173 183
332 331 330 327 325 332 336 357 17 357 2 358 256 214 226 212 184 185 186 184 180 173 158 158 171 179 185 184 182 182 184 188 184 175 174 174 175 179 180 174 174 191 208
329 325 325 325 324 323 331 318 336 4 15 1 290 219 212 197 191 186 185 185 187 181 180 177 184 188 189 187 187 186 189 188 180 178 182 184 182 182 182 187 193 204 214
331 329 331 324 319 317 315 300 286 286 313 339 315 226 213 208 202 192 183 175 189 194 188 187 190 189 187 186 187 188 187 181 180 185 188 189 189 189 193 198 201 207 212
329 331 331 323 318 313 308 301 291 280 280 295 322 270 227 213 206 206 192 191 193 200 196 191 189 187 188 186 185 184 184 186 186 186 192 194 193 195 202 204 206 216 214
324 327 331 326 324 323 314 303 294 277 268 261 254 249 215 197 199 202 204 196 198 202 200 198 194 192 189 187 184 184 185 187 189 194 195 195 196 199 206 207 206 209 213
321 321 324 322 319 318 313 304 297 288 281 274 270 260 249 233 216 212 209 205 206 208 204 201 196 191 192 188 187 190 191 194 194 196 198 199 198 202 205 206 208 209 210
313 313 314 311 312 311 312 309 303 296 287 284 290 285 268 265 238 226 217 211 212 213 204 193 195 195 190 188 188 192 197 199 199 200 201 201 201 202 202 204 207 206 207
309 312 312 311 312 313 317 314 308 304 299 295 296 299 290 263 252 247 236 214 203 211 203 194 195 203 194 186 187 191 200 204 201 197 198 200 202 204 203 206 207 206 209
307 309 309 308 308 310 313 314 315 317 318 314 312 307 295 281 275 276 269 249 219 219 206 197 194 193 190 192 196 198 203 204 198 200 199 200 202 204 205 208 210 212 213
308 309 310 306 305 305 308 311 313 315 314 312 311 310 304 292 287 288 280 254 230 230 232 223 206 200 202 206 212 217 229 228 220 205 197 201 206 206 208 211 211 211 212
301 303 304 305 305 304 304 304 305 306 303 302 301 296 292 282 271 266 265 254 245 246 247 239 230 223 217 219 227 237 240 238 234 227 211 202 206 209 207 213 214 215 213